Location: Pasadena, ca
(34.1243°N, 118.1037°W)
Time: 20:39:21
(UTC-07:00)

Vanguard 3 - Visible Passes

Search period start: 18 October 2017 00:00
Search period end: 28 October 2017 00:00
Orbit: 510 x 3263 km, 33.3° (Epoch: 18 October)

Date Brightness Start Highest point End Pass type
(mag) Time Alt. Az. Time Alt. Az. Time Alt. Az.
18 Oct 10.3 03:10:10 29° SSE 03:10:34 29° SSE 03:19:44 10° E visible
18 Oct 9.0 05:14:47 19° SW 05:24:47 57° SSE 05:32:24 10° E visible
19 Oct 10.9 02:00:56 16° ESE 02:00:56 16° ESE 02:04:06 10° ESE visible
19 Oct 9.6 04:05:33 37° SSW 04:09:54 45° SSE 04:18:59 10° E visible
19 Oct 8.5 06:11:02 10° WSW 06:23:37 76° S 06:30:26 10° E visible
20 Oct 10.2 02:56:14 34° SE 02:56:14 34° SE 03:04:53 10° E visible
20 Oct 9.0 05:00:50 28° SW 05:09:02 64° SSE 05:17:22 10° E visible
21 Oct 10.9 01:46:50 16° ESE 01:46:50 16° ESE 01:49:36 10° E visible
21 Oct 9.5 03:51:26 49° S 03:53:55 53° SSE 04:03:55 10° E visible
21 Oct 8.6 05:56:02 14° WSW 06:08:00 81° S 06:15:25 10° E visible
22 Oct 10.1 02:41:58 37° ESE 02:41:58 37° ESE 02:49:50 10° E visible
22 Oct 9.0 04:46:34 38° SW 04:53:10 71° SSE 05:02:15 10° E visible
23 Oct 11.0 01:32:27 16° E 01:32:27 16° E 01:34:43 10° E visible
23 Oct 9.5 03:37:02 59° S 03:37:49 59° SSE 03:48:43 10° E visible
23 Oct 8.7 05:41:38 21° WSW 05:52:19 84° S 06:00:21 10° E visible
24 Oct 10.2 02:27:28 37° ESE 02:27:28 37° ESE 02:34:35 10° E visible
24 Oct 9.1 04:32:03 49° WSW 04:37:14 76° SSE 04:47:05 10° E visible
24 Oct 8.5 06:38:13 10° W 06:51:19 86° S 06:58:20 10° E visible
25 Oct 11.0 01:17:50 15° E 01:17:50 15° E 01:19:31 10° E visible
25 Oct 9.5 03:22:25 65° SE 03:22:25 65° SE 03:33:25 10° E visible
25 Oct 8.9 05:27:00 27° W 05:36:32 86° S 05:45:15 10° E visible
26 Oct 10.3 02:12:46 35° E 02:12:46 35° E 02:19:11 10° E visible
26 Oct 9.2 04:17:20 59° WSW 04:21:10 80° SSE 04:31:50 10° E visible
26 Oct 8.7 06:21:55 11° W 06:35:40 84° S 06:43:16 10° E visible
27 Oct 11.2 01:03:04 13° E 01:03:04 13° E 01:04:05 10° E visible
27 Oct 9.6 03:07:38 64° ESE 03:07:38 64° ESE 03:18:02 10° E visible
27 Oct 9.0 05:12:13 33° W 05:20:40 87° S 05:30:05 10° E visible
